SCP
0 0 0 0 0 0 0 0 0 0 0 0 0 0 0 0 0 0 0 0 0 0 0 0 0 0 1 1 1 1 2 2 1 1 1 1 1 1 1 1 1 0 0 0
0 0 0 0 0 0 0 0 0 0 0 0 0 0 0 0 0 0 0 0 0 0 0 0 0 0 1 1 1 1 2 2 1 1 1 1 1 1 1 1 1 0 0 0
0 0 0 0 0 0 0 0 0 0 0 0 0 0 0 0 0 0 0 0 0 0 0 0 0 0 0 1 1 1 1 1 1 1 1 1 1 0 1 1 1 0 0 0
0 0 0 0 0 0 0 0 0 0 0 0 0 0 0 0 0 0 0 0 0 0 0 0 0 0 0 0 1 1 1 1 2 1 1 1 1 0 0 1 1 0 0 0
0 0 0 0 0 0 0 0 0 0 0 0 0 0 0 0 0 0 0 0 0 0 0 0 0 0 0 0 1 1 1 1 2 2 1 1 1 0 0 0 0 0 0 0
0 0 0 0 0 0 0 0 0 0 0 0 0 0 0 0 0 0 0 0 0 0 0 0 0 0 1 1 0 1 1 1 1 2 1 1 1 1 0 0 0 0 0 0
0 0 0 0 0 0 0 0 0 0 0 0 0 0 0 0 0 0 0 0 0 0 0 0 0 0 1 1 0 0 1 1 1 1 1 1 1 1 1 0 0 0 0 0
0 0 0 0 0 0 0 0 0 0 0 0 0 0 0 0 0 0 0 0 0 0 0 0 0 0 1 1 0 0 0 1 1 1 1 1 1 1 1 1 1 1 0 0
0 0 0 0 0 0 0 0 0 0 0 0 0 0 0 0 0 0 0 0 0 0 0 0 0 0 0 0 0 0 0 0 0 1 1 1 1 1 1 1 1 1 0 0
0 0 0 0 0 0 0 0 0 0 0 0 0 0 0 0 0 0 0 0 0 0 0 0 0 0 0 0 0 0 0 0 0 0 0 1 1 1 1 1 1 1 0 0
0 0 0 0 0 0 0 0 0 0 0 0 0 0 0 0 0 0 0 0 0 0 0 0 0 0 0 0 0 0 0 0 0 0 0 0 1 1 1 1 1 1 1 0
0 0 0 0 0 0 0 0 0 0 0 0 0 0 0 0 0 0 0 0 0 0 0 0 0 0 0 0 0 0 0 0 0 0 0 0 1 1 1 1 1 1 1 1
0 0 0 0 0 0 0 0 0 0 0 0 0 0 0 0 0 0 0 0 0 0 0 0 0 0 0 0 0 0 0 0 0 0 0 0 0 1 1 1 1 1 1 1
0 0 0 0 0 0 0 0 0 0 0 0 0 0 0 0 0 0 0 0 0 0 0 0 0 0 0 0 0 0 0 0 0 0 0 0 0 1 1 1 1 1 1 1
0 0 0 0 0 0 0 0 0 0 0 0 0 0 0 0 0 0 0 0 0 0 0 0 0 0 0 0 0 0 0 0 0 0 0 0 0 1 1 2 2 1 1 1
0 0 0 0 0 0 0 0 0 0 0 0 0 0 0 0 0 0 0 0 0 0 0 0 0 0 0 0 0 0 0 0 0 0 0 0 0 1 1 1 1 1 1 1
0 0 0 0 0 0 0 0 0 0 0 0 0 0 0 0 0 0 0 0 0 0 0 0 0 0 0 0 0 0 0 0 0 0 0 0 0 1 1 1 1 1 0 0
0 0 0 0 0 0 0 0 0 0 0 0 0 0 0 0 0 0 0 0 0 0 0 0 0 0 0 0 0 0 0 0 0 0 0 0 1 1 1 1 1 0 0 0
0 0 0 0 0 0 0 0 0 0 0 0 0 0 0 0 0 0 0 0 0 0 0 0 0 0 0 0 0 0 0 0 0 0 0 1 1 1 1 1 0 0 0 0
0 0 0 0 0 0 0 0 0 0 0 0 0 0 0 0 0 0 0 0 0 0 0 0 0 0 0 0 0 0 0 0 0 0 1 1 1 1 1 0 0 0 0 0
0 0 0 0 0 0 0 0 0 0 0 0 0 0 0 0 0 0 0 0 0 0 0 0 0 0 0 0 0 0 0 0 0 0 1 2 1 1 0 0 0 0 0 0
0 0 0 0 0 0 0 0 0 0 0 0 0 0 0 0 0 0 0 0 0 0 0 0 0 0 0 0 0 0 0 0 0 0 1 1 1 1 0 0 0 0 0 0
0 0 0 0 0 0 0 0 0 0 0 0 0 0 0 0 0 0 0 0 0 0 0 0 0 0 0 0 0 0 0 0 0 0 0 1 1 0 0 0 0 0 0 0
0 0 0 0 0 0 0 0 0 0 0 0 0 0 0 0 0 0 0 0 0 0 0 0 0 0 0 0 0 0 0 0 0 0 0 0 0 0 0 0 0 0 0 0
0 0 0 0 0 0 0 0 0 0 0 0 0 0 0 0 0 0 0 0 0 0 0 0 0 0 0 0 0 0 0 0 0 0 0 0 0 0 0 0 0 0 0 0
0 0 0 0 0 0 0 0 0 0 0 0 0 0 0 0 0 0 0 0 0 0 0 0 0 0 0 0 0 0 0 0 0 0 0 0 0 0 0 0 0 0 0 0
Wind_Speed
0 2 3 4 6 6 6 8 9 7 4 5 8 9 7 3 2 2 2 1 2 2 2 2 2 2 1 1 1 2 2 3 3 3 3 2 2 3 3 3 4 5 5 4
2 4 3 3 4 6 8 9 9 5 2 5 7 9 5 3 2 2 2 2 2 3 3 3 3 2 2 1 1 2 2 3 3 3 3 2 2 3 3 2 3 5 5 5
4 1 2 3 4 6 8 10 9 6 5 4 5 8 6 4 2 1 3 3 2 2 3 3 3 3 2 2 2 2 3 3 4 4 2 2 1 2 2 3 3 4 5 5
3 2 2 3 4 6 7 6 7 6 6 5 5 7 5 5 3 1 2 3 3 3 3 4 4 4 3 3 2 2 3 3 4 4 4 5 4 4 4 3 3 4 5 5
2 2 3 4 4 5 4 4 6 8 8 7 7 8 3 3 4 2 2 3 4 4 4 4 4 4 4 3 3 2 2 2 3 4 5 5 5 3 3 3 4 4 4 5
2 2 3 3 3 3 2 3 4 5 6 9 8 9 4 2 3 3 2 3 3 3 4 4 4 4 4 4 3 2 2 2 2 4 5 6 6 5 4 5 5 4 3 4
2 1 1 1 2 2 2 3 3 4 6 6 3 7 3 2 2 2 2 3 4 4 4 4 5 5 5 5 4 3 2 2 2 3 4 5 6 7 7 6 5 5 4 4
3 3 1 1 2 3 4 5 4 5 6 4 4 6 1 3 3 4 4 4 4 5 5 5 5 5 5 5 5 4 3 3 2 3 4 4 5 5 4 5 5 5 5 5
3 3 1 2 2 2 3 4 2 4 5 6 5 3 3 2 3 4 5 5 6 6 6 6 6 6 6 5 5 4 4 3 3 3 3 4 4 4 4 5 5 4 4 4
2 5 2 2 2 0 3 1 2 4 5 6 5 5 3 1 2 3 5 5 6 6 6 6 6 6 6 5 5 5 5 4 4 3 3 3 3 3 3 4 5 5 5 4
2 4 2 2 2 2 1 2 3 3 4 5 6 2 4 2 2 3 4 5 5 6 6 6 6 6 6 6 5 5 5 5 5 4 4 3 3 3 3 3 4 4 5 5
1 3 4 3 1 2 2 2 3 4 4 5 5 1 4 3 2 3 4 5 5 6 6 6 6 6 6 6 6 6 5 5 5 5 4 4 3 3 3 3 3 3 4 5
2 3 3 3 3 2 1 1 2 3 3 5 6 3 3 2 3 3 4 5 5 5 6 6 6 6 6 6 6 6 6 6 5 5 4 4 3 3 3 3 3 3 3 4
1 4 6 7 4 2 3 3 3 4 5 6 7 6 2 4 4 4 4 5 5 5 6 7 7 6 7 6 6 7 6 6 6 5 4 4 4 4 4 3 3 3 3 3
2 4 5 7 6 5 6 6 6 7 7 7 7 7 6 5 5 4 4 4 5 6 7 7 7 7 7 7 7 7 7 6 6 5 4 4 4 4 4 3 3 3 3 3
1 3 3 5 4 4 6 7 7 7 8 8 7 7 4 4 3 3 3 4 5 6 7 8 8 8 8 8 8 7 7 7 6 5 5 4 4 4 4 4 3 3 3 3
3 3 3 4 2 3 6 5 6 4 3 4 6 4 3 4 4 4 3 4 5 6 7 8 8 8 7 8 7 7 7 7 6 5 5 4 4 4 4 4 3 3 3 3
4 3 2 3 2 7 0 3 2 3 3 3 3 3 3 4 5 3 1 3 6 7 8 8 8 8 8 7 7 7 7 6 6 6 5 5 4 4 4 4 4 4 3 3
3 4 3 3 4 6 2 2 2 3 3 2 3 3 4 4 3 2 1 4 6 7 7 7 7 8 7 7 7 7 6 6 6 6 6 5 5 4 4 4 4 4 4 4
1 2 3 3 5 6 0 2 0 2 4 1 2 3 3 3 3 1 3 6 6 6 6 7 7 7 7 7 7 6 6 6 7 7 7 6 5 4 4 4 4 4 4 4
2 2 4 5 6 5 1 0 3 4 2 1 2 3 2 3 4 4 5 6 6 6 7 7 7 6 7 7 7 6 7 7 7 7 7 6 5 5 4 4 4 4 4 4
4 4 4 4 5 4 3 4 3 2 2 1 2 3 4 4 4 5 5 5 6 6 7 7 6 6 7 6 6 7 7 8 8 7 6 6 5 4 4 4 4 3 3 3
4 3 2 4 2 2 2 2 1 1 2 2 3 3 3 4 5 5 6 6 6 6 6 6 6 7 7 6 6 7 8 8 8 7 6 6 5 5 4 4 4 3 3 3
2 1 2 3 4 2 3 2 2 2 3 3 3 3 3 4 5 5 5 6 6 6 6 6 6 7 7 7 7 8 8 8 7 7 6 5 5 5 4 4 3 3 3 3
2 3 3 4 4 3 2 3 2 2 2 2 3 3 3 4 5 5 6 6 6 6 6 6 6 7 8 8 8 8 8 7 7 7 6 5 5 5 4 4 4 4 4 5
3 4 4 4 2 3 2 1 1 2 3 3 3 3 3 4 5 6 6 6 6 6 6 6 7 7 8 8 8 8 7 7 7 6 6 5 4 4 4 4 4 5 6 8
Wind_Direction
44 204 219 225 233 256 255 253 261 270 275 251 250 260 262 268 253 276 293 300 315 334 356 9 0 351 321 264 210 197 189 188 181 181 178 186 191 181 171 168 164 168 166 164
195 226 266 264 244 243 247 254 259 276 283 267 259 261 256 249 258 293 303 315 332 351 1 6 2 354 334 294 258 224 210 201 199 200 197 196 197 198 178 167 168 173 172 170
224 304 290 247 244 239 244 249 255 268 293 259 258 248 219 209 196 13 358 347 356 348 341 345 347 346 336 318 280 252 235 221 215 202 184 160 165 171 177 182 178 181 178 176
242 279 255 248 251 251 252 252 255 251 250 247 236 260 209 208 217 296 338 343 340 339 337 342 343 340 333 318 303 270 249 232 218 205 193 191 201 208 206 193 187 184 186 183
236 260 255 252 265 254 262 272 252 245 245 251 232 250 221 192 240 268 316 330 336 338 337 342 346 341 335 333 324 297 263 241 222 213 206 205 214 219 203 190 190 188 187 189
254 253 262 276 291 246 261 254 241 223 226 240 227 233 243 197 267 279 300 328 341 345 350 358 2 1 357 357 351 334 297 262 241 223 216 213 213 211 199 199 195 196 193 192
260 210 215 289 285 202 242 257 244 217 215 237 195 231 252 63 20 345 339 349 2 5 5 3 4 3 359 357 356 342 328 299 269 249 235 227 220 214 208 206 205 202 202 202
259 256 192 263 275 252 230 237 252 263 258 256 214 233 121 67 48 27 26 23 18 15 11 7 4 359 352 351 350 346 334 318 301 272 256 243 233 221 218 215 214 212 212 210
262 258 30 323 316 252 222 226 279 273 271 262 233 224 188 68 33 26 23 21 14 9 7 3 2 359 352 351 350 343 341 332 313 294 281 256 243 236 229 223 219 216 215 207
254 265 278 313 249 325 281 235 211 226 253 257 244 237 241 227 329 355 2 3 3 2 2 1 359 354 350 351 351 352 351 344 331 314 301 288 266 250 238 228 223 220 215 210
242 249 268 238 229 241 165 202 239 237 255 264 265 240 44 32 355 344 354 356 354 357 358 355 352 350 349 353 359 359 354 348 343 336 319 304 294 282 261 245 238 230 218 210
219 250 261 255 335 331 265 246 226 240 240 249 269 267 66 26 7 351 353 355 353 355 356 354 352 352 355 357 357 356 351 346 341 335 330 312 305 300 283 270 265 250 230 216
181 216 265 229 187 168 222 261 259 249 243 238 250 243 94 19 2 354 348 349 351 355 355 354 354 356 353 352 351 348 347 343 340 338 334 327 316 305 295 288 275 261 243 228
217 227 244 263 291 255 246 251 244 232 239 247 249 265 272 326 329 334 342 346 350 352 353 352 351 350 348 345 345 342 341 341 339 336 333 327 323 314 299 292 286 270 254 237
223 241 248 268 277 263 259 259 244 235 249 255 267 271 293 315 312 320 333 342 347 349 350 348 345 342 341 340 340 339 337 339 337 331 328 325 322 320 316 309 297 285 265 255
217 231 241 259 256 250 265 267 253 251 254 255 268 274 326 327 327 326 336 340 342 342 342 341 339 336 336 336 333 331 333 333 331 325 323 323 321 321 319 314 304 298 285 270
207 199 233 253 267 273 260 252 225 226 238 238 253 283 333 316 319 315 318 332 332 334 332 332 332 329 327 328 326 325 327 328 326 322 323 322 318 317 314 312 310 307 300 286
205 199 225 261 243 242 156 64 164 204 237 237 265 300 298 307 306 296 311 340 334 331 328 327 327 326 326 326 325 325 327 327 326 324 323 319 316 313 313 312 308 308 300 290
229 200 205 229 248 262 213 173 190 222 254 222 249 288 317 330 289 226 18 343 326 321 319 319 322 320 322 326 327 326 327 327 326 322 319 315 310 306 307 305 302 301 298 296
90 203 213 216 241 254 118 91 358 203 243 171 261 285 317 328 276 307 351 327 321 322 322 322 324 324 324 329 329 324 323 324 323 320 313 307 302 296 295 295 298 298 296 293
169 185 216 227 240 260 43 125 184 218 308 10 267 266 264 265 298 320 315 313 317 320 322 323 323 321 323 326 324 319 319 319 317 314 308 304 301 297 290 292 294 295 293 292
198 192 200 208 223 243 118 148 202 303 3 294 278 275 272 287 307 311 311 315 318 321 323 323 320 319 322 325 321 317 318 318 316 312 306 303 303 303 297 291 291 289 287 285
221 230 220 213 232 55 151 193 323 341 283 288 284 285 282 287 297 308 311 312 313 315 317 319 316 314 319 322 320 314 316 318 316 312 307 304 304 302 297 290 287 285 279 276
211 248 227 245 251 245 243 254 275 284 283 297 295 287 278 283 294 300 304 305 308 309 312 315 313 312 316 323 321 315 315 316 312 310 307 304 301 300 297 293 286 280 277 274
244 184 217 247 271 283 244 235 267 291 304 308 308 295 285 287 293 296 298 301 303 304 308 309 308 307 311 317 318 318 318 316 311 307 304 301 297 297 295 290 284 282 276 274
209 208 217 248 238 238 269 288 288 272 283 288 294 296 295 287 290 295 294 297 299 301 305 305 305 305 308 312 313 316 317 313 309 305 305 302 298 294 292 293 293 282 278 286